Find PRAETORIAN SDA_518

NORAD ID: 100076 Int'l Des: 2026-163T Country: USA operational

現在のビュー

3D地球を読み込み中...

About PRAETORIAN SDA_518

PRAETORIAN SDA_518 (NORAD 100076) is a satellite of USA.

次回通過

Passes for default location (London). Set your location on the main map for personalized predictions.

高度履歴

Loading altitude history...

軌道要素

1 A0076U 26206.56106376 .00000145 00000-0 11479-3 0 9998
2 A0076 81.4830 301.7488 0016715 189.9665 170.1165 13.86188862 1210
Epoch: Jul 25, 2026 • Age: 11 hours

現在のステータス

高度 932.6 km
遠地点 / 近地点 N/A
速度 7.39 km/s
衛星直下点 2.52°N, 166.52°E
タイプ other

Most Searched